Perryton, TX

5:16 AM CDT on June 23, 2017 (GMT -0500)
Perryton Ochiltree County

Weather History for KPYX - October, 2013

Change the Weather History Date:

Tuesday, October 8, 2013

  Actual Average Record
Temperature  
Mean Temperature 66 °F -  
Max Temperature 83 °F 73 °F 88 °F (1973)
Min Temperature 49 °F 44 °F 28 °F (1976)
Cooling Degree Days 1    
Growing Degree Days 16 (Base 50)    
Moisture  
Dew Point 36 °F    
Average Humidity 38    
Maximum Humidity 66    
Minimum Humidity 14    
Precipitation  
Precipitation 0.00 in - - ()
Sea Level Pressure  
Sea Level Pressure 29.97 in    
Wind  
Wind Speed 15 mph (South)    
Max Wind Speed 31 mph    
Max Gust Speed 38 mph    
Visibility 10 miles    
Events      
Averages and records for this station are not official NWS values.
T = Trace of Precipitation, MM = Missing Value Source: NWS Daily Summary

Daily Weather History Graph

Daily Weather History Graph

Search for Another Location

Airport or City:

Trip Planner

Search our weather history database for the weather conditions in past years. The results will help you decide how hot, cold, wet, or windy it might be!

Date:

Astronomy

Oct. 08, 2013 Rise Set
Actual Time 7:44 AM CDT 7:16 PM CDT
Civil Twilight 7:18 AM CDT 7:41 PM CDT
Nautical Twilight 6:48 AM CDT 8:11 PM CDT
Astronomical Twilight 6:18 AM CDT 8:41 PM CDT
Moon 11:34 AM CDT (10/8) 10:00 PM CDT (10/8)
Length of Visible Light 12h 23m
Length of Day
11h 31m
Waxing Crescent, 16% of the Moon is Illuminated
Oct 8
Waxing Crescent
Oct 11
First Quarter
Oct 18
Full
Oct 26
Last Quarter
Nov 3
New

Hourly Weather History & Observations

Time (CDT) Temp. Dew Point Humidity Pressure Visibility Wind Dir Wind Speed Gust Speed Precip Events Conditions
12:15 AM 55.6 °F 39.7 °F 55% 30.07 in 10.0 mi SSE 10.4 mph - N/A   Clear
12:35 AM 54.7 °F 40.1 °F 58% 30.06 in 10.0 mi South 10.4 mph - N/A   Clear
12:55 AM 54.3 °F 39.9 °F 58% 30.06 in 10.0 mi SSE 11.5 mph - N/A   Clear
1:15 AM 54.1 °F 39.9 °F 59% 30.05 in 10.0 mi SSE 11.5 mph - N/A   Clear
1:35 AM 54.3 °F 39.6 °F 57% 30.05 in 10.0 mi SSE 12.7 mph - N/A   Clear
1:55 AM 53.6 °F 39.6 °F 59% 30.05 in 10.0 mi South 11.5 mph - N/A   Clear
2:15 AM 53.4 °F 39.6 °F 59% 30.05 in 10.0 mi SSE 11.5 mph - N/A   Clear
2:35 AM 52.9 °F 39.4 °F 60% 30.04 in 10.0 mi South 10.4 mph - N/A   Clear
2:55 AM 51.8 °F 39.2 °F 62% 30.04 in 10.0 mi South 10.4 mph - N/A   Clear
3:15 AM 50.2 °F 39.2 °F 66% 30.04 in 10.0 mi South 10.4 mph - N/A   Clear
3:35 AM 49.8 °F 38.7 °F 65% 30.03 in 10.0 mi South 10.4 mph - N/A   Clear
3:55 AM 50.0 °F 38.7 °F 65% 30.03 in 10.0 mi SSE 10.4 mph - N/A   Clear
4:15 AM 50.5 °F 38.7 °F 64% 30.03 in 10.0 mi South 10.4 mph - N/A   Clear
4:35 AM 52.3 °F 39.0 °F 61% 30.02 in 10.0 mi South 11.5 mph - N/A   Clear
4:55 AM 53.8 °F 38.8 °F 57% 30.02 in 10.0 mi South 12.7 mph - N/A   Clear
5:15 AM 53.6 °F 38.7 °F 57% 30.02 in 10.0 mi South 11.5 mph - N/A   Clear
5:35 AM 52.9 °F 38.5 °F 58% 30.02 in 10.0 mi South 11.5 mph - N/A   Clear
5:55 AM 52.7 °F 38.3 °F 58% 30.02 in 10.0 mi South 11.5 mph - N/A   Clear
6:15 AM 52.5 °F 38.5 °F 59% 30.02 in 10.0 mi South 10.4 mph - N/A   Clear
6:35 AM 52.3 °F 38.3 °F 59% 30.02 in 10.0 mi South 10.4 mph - N/A   Clear
6:55 AM 52.5 °F 38.3 °F 58% 30.02 in 10.0 mi South 11.5 mph - N/A   Clear
7:15 AM 51.8 °F 38.1 °F 60% 30.02 in 10.0 mi South 11.5 mph - N/A   Clear
7:35 AM 51.3 °F 38.3 °F 61% 30.02 in 10.0 mi South 10.4 mph - N/A   Clear
7:55 AM 51.4 °F 37.9 °F 60% 30.02 in 10.0 mi South 12.7 mph - N/A   Clear
8:15 AM 52.7 °F 38.3 °F 58% 30.02 in 10.0 mi South 11.5 mph - N/A   Clear
8:35 AM 55.0 °F 39.0 °F 55% 30.02 in 10.0 mi South 11.5 mph - N/A   Clear
8:55 AM 57.2 °F 39.0 °F 51% 30.02 in 10.0 mi South 13.8 mph - N/A   Clear
9:15 AM 59.4 °F 39.0 °F 47% 30.02 in 10.0 mi South 16.1 mph - N/A   Clear
9:35 AM 62.1 °F 37.2 °F 40% 30.02 in 10.0 mi South 16.1 mph - N/A   Clear
9:55 AM 64.6 °F 36.1 °F 35% 30.02 in 10.0 mi South 18.4 mph 24.2 mph N/A   Clear
10:15 AM 66.7 °F 34.9 °F 31% 30.02 in 10.0 mi South 19.6 mph - N/A   Clear
10:35 AM 68.2 °F 34.2 °F 28% 30.01 in 10.0 mi South 21.9 mph - N/A   Clear
10:55 AM 69.6 °F 34.2 °F 27% 30.01 in 10.0 mi South 21.9 mph 27.6 mph N/A   Clear
11:15 AM 71.1 °F 34.7 °F 26% 30.01 in 10.0 mi South 20.7 mph 24.2 mph N/A   Clear
11:35 AM 72.0 °F 34.5 °F 25% 30.00 in 10.0 mi South 18.4 mph - N/A   Clear
11:55 AM 74.5 °F 34.5 °F 23% 29.99 in 10.0 mi South 21.9 mph 27.6 mph N/A   Clear
12:15 PM 75.9 °F 33.8 °F 22% 29.98 in 10.0 mi South 21.9 mph 28.8 mph N/A   Clear
12:35 PM 78.3 °F 32.2 °F 19% 29.98 in 7.0 mi South 23.0 mph 28.8 mph N/A   Clear
12:55 PM 78.6 °F 31.6 °F 18% 29.97 in 10.0 mi South 25.3 mph 28.8 mph N/A   Clear
1:15 PM 80.6 °F 30.6 °F 16% 29.96 in 5.0 mi South 25.3 mph 31.1 mph N/A   Clear
1:35 PM 79.7 °F 30.9 °F 17% 29.95 in 7.0 mi South 25.3 mph - N/A   Clear
1:55 PM 82.2 °F 29.1 °F 15% 29.93 in 5.0 mi South 31.1 mph 36.8 mph N/A   Clear
2:15 PM 81.1 °F 27.9 °F 14% 29.93 in 4.0 mi South 31.1 mph 36.8 mph N/A   Clear
2:35 PM 81.9 °F 30.6 °F 16% 29.92 in 7.0 mi South 26.5 mph 38.0 mph N/A   Clear
2:55 PM 80.6 °F 31.5 °F 17% 29.91 in 10.0 mi South 28.8 mph 33.4 mph N/A   Clear
3:15 PM 83.5 °F 31.1 °F 15% 29.90 in 10.0 mi South 31.1 mph 36.8 mph N/A   Clear
3:35 PM 82.4 °F 32.0 °F 16% 29.90 in 10.0 mi South 28.8 mph 36.8 mph N/A   Clear
3:55 PM 81.9 °F 32.0 °F 16% 29.90 in 10.0 mi South 24.2 mph - N/A   Clear
4:15 PM 80.1 °F 32.2 °F 18% 29.90 in 10.0 mi South 23.0 mph 34.5 mph N/A   Clear
4:35 PM 82.4 °F 32.0 °F 16% 29.89 in 10.0 mi South 28.8 mph 35.7 mph N/A   Clear
4:55 PM 82.0 °F 32.0 °F 16% 29.89 in 10.0 mi South 27.6 mph 33.4 mph N/A   Clear
5:15 PM 82.2 °F 32.4 °F 17% 29.88 in 10.0 mi South 31.1 mph 35.7 mph N/A   Clear
5:35 PM 81.0 °F 32.0 °F 17% 29.88 in 10.0 mi South 25.3 mph 33.4 mph N/A   Clear
5:55 PM 77.7 °F 32.0 °F 19% 29.88 in 10.0 mi South 24.2 mph 31.1 mph N/A   Clear
6:15 PM 76.1 °F 34.5 °F 22% 29.87 in 10.0 mi SSE 18.4 mph - N/A   Clear
6:35 PM 76.1 °F 34.0 °F 22% 29.87 in 10.0 mi SSE 19.6 mph - N/A   Clear
6:55 PM 75.2 °F 35.4 °F 24% 29.87 in 10.0 mi SSE 17.3 mph - N/A   Clear
7:15 PM 73.0 °F 35.1 °F 25% 29.87 in 10.0 mi SSE 13.8 mph - N/A   Clear
7:35 PM 71.1 °F 34.0 °F 26% 29.88 in 10.0 mi SSE 13.8 mph - N/A   Clear
7:55 PM 69.8 °F 33.8 °F 27% 29.88 in 10.0 mi SSE 17.3 mph - N/A   Clear
8:15 PM 68.4 °F 34.7 °F 29% 29.88 in 10.0 mi SSE 16.1 mph - N/A   Clear
8:35 PM 66.2 °F 35.6 °F 32% 29.88 in 10.0 mi SSE 15.0 mph - N/A   Clear
8:55 PM 65.1 °F 35.6 °F 33% 29.88 in 10.0 mi SSE 15.0 mph - N/A   Clear
9:15 PM 65.5 °F 35.4 °F 33% 29.89 in 10.0 mi SSE 16.1 mph - N/A   Clear
9:35 PM 65.3 °F 35.6 °F 33% 29.89 in 10.0 mi SSE 17.3 mph - N/A   Clear
9:55 PM 65.1 °F 36.0 °F 34% 29.89 in 10.0 mi SSE 18.4 mph - N/A   Clear
10:15 PM 64.2 °F 36.7 °F 36% 29.90 in 10.0 mi SSE 18.4 mph - N/A   Clear
10:35 PM 63.7 °F 37.2 °F 38% 29.90 in 10.0 mi SSE 18.4 mph - N/A   Clear
10:55 PM 63.5 °F 37.8 °F 39% 29.90 in 10.0 mi SSE 19.6 mph - N/A   Clear
11:15 PM 63.1 °F 38.1 °F 40% 29.90 in 10.0 mi SSE 19.6 mph - N/A   Clear
11:35 PM 62.6 °F 37.9 °F 40% 29.90 in 10.0 mi SSE 17.3 mph - N/A   Clear
11:55 PM 63.5 °F 37.4 °F 38% 29.90 in 10.0 mi SSE 18.4 mph - N/A   Clear